This demonstration page uses our WeatherBlox Daily Observations layout. Learn more.

Left ArrowRight Arrow

38.20091, -84.87328

Hourly Observations for July 16, 2018

Temp ( °F °C ) Dew Point ( °F °C ) Humidity (%) Winds ( mph kmh ) Pressure ( in mb ) Visibility ( mi km ) Precip ( " mm )
12:53 am 00:53 Cloudy 76 24.4 71 21.7 85 85 Calm 30.00 1016 10 16 0.00 0.00
1:53 am 01:53 Partly Cloudy 75 23.9 70 21.1 84 84 SSE 6 9 29.99 1016 10 16 0.00 0.00
2:39 am 02:39 Cloudy 75 23.9 71 21.7 88 88 SSE 3 6 29.97 1015 10 16 0.00 0.00
2:53 am 02:53 Cloudy 74 23.3 71 21.7 91 91 SSE 3 6 29.98 1015 10 16 0.00 0.00
3:53 am 03:53 Cloudy 74 23.3 71 21.7 91 91 S 5 7 29.97 1015 10 16 0.00 0.00
4:53 am 04:53 Clear 73 22.8 70 21.1 90 90 WSW 3 6 29.96 1015 10 16 0.00 0.00
5:53 am 05:53 Clear 72 22.2 70 21.1 94 94 SW 6 9 29.96 1015 10 16 0.00 0.00
6:53 am 06:53 Cloudy 74 23.3 70 21.1 88 88 Calm 29.96 1015 10 16 0.00 0.00
7:53 am 07:53 Cloudy 76 24.4 72 22.2 88 88 S 5 7 29.96 1015 10 16 0.00 0.00
8:53 am 08:53 Cloudy 77 25 71 21.7 82 82 WSW 6 9 29.97 1015 10 16 0.00 0.00
9:53 am 09:53 Cloudy 79 26.1 71 21.7 77 77 SSW 5 7 29.98 1015 10 16 0.00 0.00
10:53 am 10:53 Mostly Cloudy 81 27.2 72 22.2 74 74 S 9 15 29.97 1015 10 16 0.00 0.00
11:16 am 11:16 Cloudy 83 28.3 72 22.2 70 70 SSW 6 9 29.97 1015 10 16 0.00 0.00
11:53 am 11:53 Cloudy with Light Rain 79 26.1 74 23.3 85 85 WSW 6 9 29.97 1015 3 4 0.03 0.76
12:02 pm 12:02 Cloudy with Light Rain 78 25.6 75 23.9 90 90 SW 7 11 29.97 1015 4 6 0.01 0.25
12:53 pm 12:53 Cloudy with Light Rain 79 26.1 75 23.9 88 88 SW 8 13 29.95 1014 10 16 0.01 0.25
1:13 pm 13:13 Cloudy with Light Rain 77 25 75 23.9 94 94 WSW 6 9 29.94 1014 3 5 0.02 0.51
1:19 pm 13:19 Cloudy with Nearby Thunderstorms 78 25.6 75 23.9 90 90 WSW 9 15 29.94 1014 8 13 0.02 0.51
1:37 pm 13:37 Cloudy with Nearby Thunderstorms 77 25 74 23.3 90 90 W 8 13 29.94 1014 10 16 0.02 0.51
1:47 pm 13:47 Cloudy with Nearby Thunderstorms 77 25 73 23 89 89 W 9 15 29.94 1014 8 13 0.02 0.51
1:53 pm 13:53 Cloudy with Nearby Thunderstorms 77 25 74 23.3 90 90 W 6 9 29.95 1014 9 14 0.02 0.51
2:03 pm 14:03 Cloudy 77 25 73 22.8 88 88 W 6 9 29.94 1014 10 16 0.00 0.00
2:33 pm 14:33 Cloudy 77 25 73 22.8 88 88 WNW 10 17 29.94 1014 9 14 0.01 0.25
2:53 pm 14:53 Cloudy 77 25 73 22.8 88 88 VRB 6 9 29.94 1014 8 13 0.01 0.25
3:02 pm 15:02 Cloudy 78 25.6 74 23.3 87 87 WSW 9 15 29.94 1014 9 14 0.00 0.00
3:53 pm 15:53 Cloudy 78 25.6 74 23.3 87 87 VRB 5 7 29.92 1013 9 14 0.00 0.03
4:08 pm 16:08 Cloudy 79 26.1 74 23.3 85 85 W 6 9 29.91 1013 10 16 0.00 0.00
4:18 pm 16:18 Cloudy 80 26.7 74 23.3 82 82 VRB 6 9 29.91 1013 10 16 0.00 0.00
4:53 pm 16:53 Cloudy 79 26.1 73 22.8 82 82 WNW 7 11 29.91 1013 10 16 0.00 0.00
5:53 pm 17:53 Cloudy 81 27.2 74 23.3 79 79 VRB 3 6 29.91 1013 10 16 0.00 0.00
6:53 pm 18:53 Sunny 83 28.3 73 22.8 72 72 W 7 11 29.88 1012 10 16 0.00 0.00
7:53 pm 19:53 Sunny 83 28.3 72 22.2 70 70 WSW 5 7 29.88 1012 10 16 0.00 0.00
8:53 pm 20:53 Sunny 80 26.7 73 22.8 79 79 Calm 29.91 1013 10 16 0.00 0.00
9:53 pm 21:53 Clear 77 25 73 22.8 88 88 WSW 5 7 29.92 1013 10 16 0.00 0.00
10:53 pm 22:53 Clear 77 25 73 22.8 88 88 WSW 3 6 29.92 1013 10 16 0.00 0.00
11:53 pm 23:53 Clear 75 23.9 72 22.2 90 90 SW 3 6 29.92 1013 9 14 0.00 0.00

Powered by AerisWeather